Simultaneous Nadir Overpasses (SNOs) Predictions

Prediction of SNOs between GOES-15 and TERRA Satellite Orbit:

Table of predicted SNOs for the next 14.0 days since TLE Epoch: 5/2/2013
Index Date Time (GOES-15) GOES-15 Lat,Lon TERRA Lat,Lon Distance(km) Time Diff (sec)
1 05/04/2013 07:28:22 0.08,-135.35 0.20,-134.93 49.03 80
2 05/06/2013 07:16:08 0.08,-135.37 0.79,-131.96 388.26 80
3 05/06/2013 19:37:23 -0.08,-135.39 0.30,-137.11 195.57 80
4 05/08/2013 19:27:49 -0.08,-135.41 -0.32,-134.14 143.37 80
5 05/09/2013 07:49:13 0.07,-135.40 -0.75,-139.34 447.65 80
6 05/10/2013 19:15:35 -0.08,-135.42 -0.96,-131.18 481.70 80
7 05/11/2013 07:36:59 0.07,-135.41 -0.11,-136.37 109.49 80
8 05/13/2013 07:22:04 0.08,-135.41 0.48,-133.40 228.15 80
9 05/13/2013 19:45:58
